Weather History for Fairbanks Eiels, AK

Change the Weather History Date:

Thursday, August 1, 2013

  Actual Average Record
Temperature  
Mean Temperature 68 °F -  
Max Temperature 85 °F 69 °F 88 °F (1976)
Min Temperature 51 °F 50 °F 40 °F (1980)
Cooling Degree Days 3    
Growing Degree Days 18 (Base 50)    
Moisture  
Dew Point 49 °F    
Average Humidity 54    
Maximum Humidity 89    
Minimum Humidity 23    
Precipitation  
Precipitation 0.00 in - - ()
Sea Level Pressure  
Sea Level Pressure 29.95 in    
Wind  
Wind Speed 3 mph (NE)    
Max Wind Speed 9 mph    
Max Gust Speed -    
Visibility 10 miles    
Events      
Averages and records for this station are not official NWS values.
T = Trace of Precipitation, MM = Missing Value Source: NWS Daily Summary

Daily Weather History Graph

Daily Weather History Graph

Search for Another Location

Airport:

Trip Planner

Search our weather history database for the weather conditions in past years. The results will help you decide how hot, cold, wet, or windy it might be!

Date:

Astronomy

Aug. 01, 2013 Rise Set
Actual Time 4:51 AM AKDT 10:55 PM AKDT
Civil Twilight 3:15 AM AKDT 12:28 AM AKDT
Nautical Twilight Sun does not rise Sun does not rise
Astronomical Twilight Sun does not rise Sun does not rise
Moon 12:22 AM AKDT (8/1) 7:31 PM AKDT (8/1)
Length of Visible Light 21h 13m
Length of Day
18h 04m
Waning Crescent, 22% of the Moon is Illuminated
Aug 1
Waning Crescent
Aug 6
New
Aug 14
First Quarter
Aug 20
Full
Aug 28
Last Quarter

Hourly Weather History & Observations

Time (AKDT) Temp. Dew Point Humidity Pressure Visibility Wind Dir Wind Speed Gust Speed Precip Events Conditions
12:55 AM 58.8 °F 50.5 °F 74% 30.03 in 10.0 mi South 5.8 mph - N/A   Clear
1:55 AM 57.2 °F 49.6 °F 76% 30.03 in 10.0 mi South 5.8 mph - N/A   Clear
2:55 AM 56.1 °F 49.3 °F 78% 30.03 in 10.0 mi South 3.5 mph - N/A   Clear
3:55 AM 52.9 °F 49.1 °F 87% 30.03 in 10.0 mi Calm Calm - N/A   Clear
4:55 AM 51.8 °F 48.7 °F 89% 30.04 in 10.0 mi North 4.6 mph - N/A   Clear
5:55 AM 52.0 °F 48.9 °F 89% 30.03 in 10.0 mi North 3.5 mph - N/A   Clear
6:55 AM 54.3 °F 48.4 °F 80% 30.04 in 10.0 mi Calm Calm - N/A   Clear
7:55 AM 57.0 °F 50.5 °F 79% 30.03 in 10.0 mi Calm Calm - N/A   Clear
8:55 AM 60.8 °F 51.3 °F 71% 30.03 in 10.0 mi Calm Calm - N/A   Clear
9:55 AM 65.5 °F 52.9 °F 64% 30.02 in 10.0 mi Calm Calm - N/A   Clear
10:55 AM 70.2 °F 52.5 °F 53% 30.01 in 10.0 mi Calm Calm - N/A   Clear
11:55 AM 73.9 °F 53.2 °F 48% 29.99 in 10.0 mi Calm Calm - N/A   Clear
12:55 PM 77.7 °F 53.4 °F 43% 29.97 in 10.0 mi Calm Calm - N/A   Clear
1:55 PM 81.1 °F 49.5 °F 33% 29.95 in 10.0 mi Calm Calm - N/A   Clear
2:55 PM 82.4 °F 48.4 °F 30% 29.93 in 10.0 mi North 5.8 mph - N/A   Clear
3:55 PM 84.0 °F 47.8 °F 28% 29.91 in 10.0 mi Variable 5.8 mph - N/A   Mostly Cloudy
4:55 PM 83.8 °F 48.6 °F 29% 29.88 in 10.0 mi Variable 3.5 mph - N/A   Clear
5:55 PM 85.1 °F 45.0 °F 25% 29.86 in 10.0 mi Variable 5.8 mph - N/A   Clear
6:55 PM 84.9 °F 43.2 °F 23% 29.84 in 10.0 mi ENE 5.8 mph - N/A   Clear
7:55 PM 84.6 °F 46.2 °F 26% 29.83 in 10.0 mi NNE 9.2 mph - N/A   Partly Cloudy
8:55 PM 82.6 °F 48.6 °F 30% 29.82 in 10.0 mi NNE 9.2 mph - N/A   Scattered Clouds
9:55 PM 79.5 °F 48.4 °F 33% 29.81 in 10.0 mi NE 5.8 mph - N/A   Partly Cloudy
10:55 PM 70.9 °F 51.1 °F 49% 29.81 in 10.0 mi Calm Calm - N/A   Clear
11:55 PM 64.6 °F 49.8 °F 59% 29.81 in 10.0 mi Calm Calm - N/A   Clear